Flag for Qatar Weather past 2 weeks in Al-Jamiliyah, Qatar

Now
90 °F

Sunny.


Feels Like: 87 °F
Forecast: 86 / 103 °F
Wind: 13 mph from Northwest

Location: Al Udeid

Current Time: May 28, 2015 at 10:29:29 PM

Latest Report: May 28, 2015 at 9:58 PM


Visibility: N/A

Pressure: 29.65 "Hg

Humidity: 19%

Dew point: 42 °F

Location of Al-JamiliyahLocation

Historic Weather in Al-Jamiliyah — Graph

°F

Al-Jamiliyah temperature yesterday

Maximum temperature yesterday: 109 °F (at 1:03 PM)
Minimum temperature yesterday: 85 °F (at 4:58 AM)
Average temperature yesterday: 98 °F

Past Weeks' High & Low Weather Summary

 TemperatureHumidityPressure
High114 °F (May 23, 2:58 PM)75% (May 17, 9:58 AM)29.83 "Hg (May 17, 9:58 AM)
Low38 °F (May 17, 9:58 AM)6% (May 19, 12:58 PM)29.60 "Hg (May 23, 4:58 PM)
Average95 °F25%29.72 "Hg
* Reported May 13 8:58 PM — May 28 8:58 PM, Al-Jamiliyah, Weather by CustomWeather, © 2015

Note: Actual official high and low records may vary slightly from our data, if they occured in-between our weather recording intervals... More about our weather records

Advertising

Al-Jamiliyah weather history for previous 24 hours

 ConditionsComfort  
Time TempWeatherWind HumidityBarometerVisibility
8:58 PM
Thu, May 28
92 °FSunny.9 mph15%29.65 "HgN/A
7:58 PM95 °FSunny.13 mph13%29.65 "HgN/A
6:58 PM97 °FSunny.14 mph11%29.65 "HgN/A
5:58 PM100 °FSunny.20 mph8%29.64 "HgN/A
4:58 PM103 °FSunny.21 mph8%29.65 "HgN/A
3:58 PM105 °FSunny.20 mph10%29.65 "HgN/A
2:58 PM107 °FSunny.24 mph8%29.66 "Hg6 mi
1:58 PM108 °FSunny.21 mph7%29.67 "Hg6 mi
12:58 PM107 °FSunny.15 mph8%29.69 "Hg5 mi
11:58 AM106 °FClear.16 mph10%29.71 "HgN/A
10:58 AM105 °FClear.15 mph14%29.73 "HgN/A
6:58 AM90 °FClear.10 mph30%29.74 "HgN/A
4:58 AM84 °FClear.12 mph32%29.70 "HgN/A
3:58 AM85 °FClear.12 mph34%29.68 "HgN/A
2:58 AM85 °FClear.13 mph32%29.67 "HgN/A
1:58 AM85 °FSunny.12 mph32%29.68 "HgN/A
12:58 AM87 °FSunny.8 mph32%29.69 "HgN/A
11:58 PM
Wed, May 27
87 °FSunny.8 mph34%29.71 "HgN/A
10:58 PM88 °FSunny.9 mph34%29.73 "HgN/A
Weather by CustomWeather, © 2015

See weather overviewHow to use our weather pages